Printer-friendly version

IAU Minor Planet Center

Minor Planet Center

MPEC 2006-L07 : 2006 LC

The following Minor Planet Electronic Circular may be linked-to from your own Web pages, but must not otherwise be redistributed electronically.


Read MPEC 2006-L06 Read MPEC 2006-L08


M.P.E.C. 2006-L07                                Issued 2006 June 2, 05:37 UT

     The Minor Planet Electronic Circulars contain information on unusual
         minor planets and routine data on comets.  They are published
   on behalf of Commission 20 of the International Astronomical Union by the
          Minor Planet Center, Smithsonian Astrophysical Observatory,
                          Cambridge, MA 02138, U.S.A.

                  Supported in part by the Brinson Foundation
                  Supported in part by the TABASGO Foundation
             Prepared using the Tamkin Foundation Computer Network

                              MPC@CFA.HARVARD.EDU
          URL http://cfa-www.harvard.edu/iau/mpc.html  ISSN 1523-6714

                                    2006 LC

Observations:
     K06L00C* C2006 06 01.21230 14 02 08.41 -17 04 01.4          18.4 V EL007G96
     K06L00C  C2006 06 01.21843 14 02 07.98 -17 02 47.8          18.6 V EL007G96
     K06L00C  C2006 06 01.22447 14 02 07.54 -17 01 34.6          18.5 V EL007G96
     K06L00C  C2006 06 01.23045 14 02 07.11 -17 00 21.9          18.7 V EL007G96
     K06L00C  C2006 06 01.26828 14 02 04.59 -16 52 40.8          18.6 V EL007G96
     K06L00C  C2006 06 01.27385 14 02 04.23 -16 51 32.2          18.6 V EL007G96
     K06L00C  C2006 06 01.27944 14 02 03.87 -16 50 23.7          18.8 V EL007G96
     K06L00C  C2006 06 01.28501 14 02 03.55 -16 49 15.2          18.7 V EL007G96
     K06L00C  C2006 06 02.16908 14 01 52.77 -13 39 37.8          19.0 R EL007734
     K06L00C  C2006 06 02.17123 14 01 52.62 -13 39 08.2          18.7 R EL007734
     K06L00C  C2006 06 02.17339 14 01 52.49 -13 38 39.0          18.6 R EL007734
     K06L00C  C2006 06 02.17450 14 01 54.51 -13 38 12.7          18.5 V EL007G96
     K06L00C  C2006 06 02.17492 14 01 54.51 -13 38 06.9          18.4 V EL007G96
     K06L00C  C2006 06 02.17534 14 01 54.48 -13 38 01.4          18.5 V EL007G96
     K06L00C  C2006 06 02.17555 14 01 52.36 -13 38 09.5          18.6 R EL007734
     K06L00C  C2006 06 02.17575 14 01 54.44 -13 37 55.7          18.6 V EL007G96
     K06L00C  C2006 06 02.17749 14 01 52.22 -13 37 42.9          18.4 R EL007734

Observer details:
734 Farpoint Observatory.  Observer D. Tibbets.  Measurer G. Hug.  0.7-m
    reflector + CCD.
G96 Mt. Lemmon Survey.  Observers A. D. Grauer, R. Hill.  Measurers
    E. C. Beshore, E. J. Christensen, G. J. Garradd, A. R. Gibbs, A. D. Grauer,
    R. E. Hill, R. A. Kowalski, S. M. Larson, R. H. McNaught.  1.5-m reflector
    + CCD.

Orbital elements:
2006 LC                                                  Earth MOID = 0.0307 AU
Epoch 2006 Mar. 6.0 TT = JDT 2453800.5                  MPC
M 286.74194              (2000.0)            P               Q
n   0.54663139     Peri.   52.23983     +0.51399311     +0.83621767
a   1.4814023      Node   249.73577     -0.83709271     +0.44030246
e   0.3573069      Incl.   11.75911     -0.18731491     +0.32691551
P   1.80           H   23.2           G   0.15           U   8
Residuals in seconds of arc
060601 G96  0.1-  0.4+    060601 G96  0.5-  0.1+    060602 G96  0.3-  0.3+
060601 G96  0.1-  0.1-    060601 G96  0.0   0.2+    060602 G96  0.3-  0.0
060601 G96  0.4-  0.1-    060602 734  0.2-  0.2-    060602 734  0.1-  0.1-
060601 G96  0.7-  0.0     060602 734  0.4-  0.1+    060602 G96  0.5-  0.2+
060601 G96  0.4-  0.2-    060602 734  0.3-  0.2-    060602 734  0.4-  0.0
060601 G96  0.4-  0.2+    060602 G96  0.7-  0.2+

Ephemeris:
2006 LC                  a,e,i = 1.48, 0.36, 12                  q = 0.9521
Date    TT    R. A. (2000) Decl.     Delta      r     Elong.  Phase     V
2006 05 25    14 05.76   -33 07.9    0.0971   1.098   150.6    26.9    19.5
2006 05 27    14 04.51   -29 56.2    0.0871   1.089   149.6    28.1    19.3
2006 05 29    14 03.43   -25 55.1    0.0775   1.080   148.0    29.8    19.1
2006 05 31    14 02.57   -20 48.7    0.0686   1.071   145.6    32.3    18.9
2006 06 02    14 01.93   -14 15.8    0.0604   1.062   142.0    36.0    18.7
2006 06 04    14 01.57   -05 51.4    0.0533   1.054   136.8    41.2    18.6
2006 06 06    14 01.51   +04 46.4    0.0476   1.046   129.5    48.5    18.5
2006 06 08    14 01.78   +17 36.1    0.0441   1.038   120.0    57.9    18.6
2006 06 10    14 02.45   +31 48.7    0.0429   1.030   108.9    68.8    18.8
2006 06 12    14 03.57   +45 50.7    0.0445   1.022    97.9    79.6    19.3
2006 06 14    14 05.28   +58 15.7    0.0484   1.015    88.3    89.0    19.8
2006 06 16    14 07.87   +68 26.5    0.0541   1.008    80.7    96.3    20.3
2006 06 18    14 12.09   +76 29.2    0.0612   1.002    75.1   101.6    20.8
2006 06 20    14 20.69   +82 47.7    0.0691   0.996    71.0   105.2    21.3
2006 06 22    14 57.00   +87 45.0    0.0776   0.990    68.1   107.7    21.7
2006 06 24    01 07.37   +88 07.4    0.0866   0.985    66.1   109.3    22.0

Kyle E. Smalley              (C) Copyright 2006 MPC           M.P.E.C. 2006-L07

Read MPEC 2006-L06 Read MPEC 2006-L08


Our Web policy. Index to the CBAT/MPC/ICQ pages.


Valid HTML 4.01!